Bennington, VT

1:47 PM EST on November 14, 2019 (GMT -0500)
Morse State

Weather History for KDDH - August, 2019

Change the Weather History Date:

Sunday, August 25, 2019

  Actual Average Record
Temperature  
Mean Temperature 63 °F 65 °F  
Max Temperature 75 °F 77 °F 93 °F (2007)
Min Temperature 50 °F 54 °F 42 °F (2001)
Degree Days  
Heating Degree Days 2 2  
Month to date heating degree days 19 30  
Since 1 June heating degree days 105 151  
Since 1 July heating degree days 20 54  
Cooling Degree Days 0 2  
Month to date cooling degree days 95 83  
Year to date cooling degree days 344 278  
Since 1 June cooling degree days 338 264  
Growing Degree Days 14 (Base 50)    
Moisture  
Dew Point 51 °F    
Average Humidity 66    
Maximum Humidity 93    
Minimum Humidity 38    
Precipitation  
Precipitation 0.00 in 0.11 in 0.95 in (2007)
Month to date precipitation 4.07 3.30  
Year to date precipitation 27.26 26.84  
Sea Level Pressure  
Sea Level Pressure 30.30 in    
Wind  
Wind Speed 4 mph (ESE)    
Max Wind Speed 10 mph    
Max Gust Speed 16 mph    
Visibility 10 miles    
Events      
T = Trace of Precipitation, MM = Missing Value Source: NWS Daily Summary

Daily Weather History Graph

Daily Weather History Graph

Search for Another Location

Airport or City:

Astronomy

Aug. 25, 2019 Rise Set
Actual Time 6:09 AM EDT 7:39 PM EDT
Civil Twilight 5:39 AM EDT 8:09 PM EDT
Nautical Twilight 5:04 AM EDT 8:45 PM EDT
Astronomical Twilight 4:25 AM EDT 9:23 PM EDT
Moon 12:38 AM EDT (8/25) 4:02 PM EDT (8/25)
Length of Visible Light 14h 29m
Length of Day
13h 30m
Waning Crescent, 29% of the Moon is Illuminated
Aug 25
Waning Crescent
Aug 30
New
Sep 5
First Quarter
Sep 14
Full
Sep 21
Last Quarter

Hourly Weather History & Observations

Time (EDT) Temp. Dew Point Humidity Pressure Visibility Wind Dir Wind Speed Gust Speed Precip Events Conditions
12:54 AM 64.0 °F 54.0 °F 70% 30.30 in 10.0 mi East 6.9 mph - N/A   Overcast
1:38 AM 64.0 °F 54.0 °F 70% 30.30 in 10.0 mi Variable 5.8 mph - N/A   Overcast
1:49 AM 62.6 °F 53.6 °F 72% 30.30 in 10.0 mi ESE 4.6 mph - N/A   Overcast
1:54 AM 63.0 °F 54.0 °F 72% 30.29 in 10.0 mi ESE 4.6 mph - N/A   Overcast
2:54 AM 61.0 °F 53.1 °F 75% 30.29 in 10.0 mi Variable 3.5 mph - N/A   Scattered Clouds
3:54 AM 61.0 °F 53.1 °F 75% 30.30 in 10.0 mi ESE 4.6 mph - N/A   Mostly Cloudy
4:54 AM 57.0 °F 53.1 °F 87% 30.31 in 10.0 mi Calm Calm - N/A   Partly Cloudy
5:54 AM 54.0 °F 51.1 °F 90% 30.31 in 10.0 mi Calm Calm - N/A   Scattered Clouds
6:54 AM 55.0 °F 53.1 °F 93% 30.33 in 10.0 mi Calm Calm - N/A   Mostly Cloudy
7:54 AM 60.1 °F 54.0 °F 80% 30.35 in 10.0 mi Calm Calm - N/A   Partly Cloudy
8:54 AM 64.0 °F 54.0 °F 70% 30.35 in 10.0 mi Calm Calm - N/A   Partly Cloudy
10:54 AM 70.0 °F 52.0 °F 53% 30.34 in 10.0 mi East 5.8 mph - N/A   Overcast
11:54 AM 71.1 °F 51.1 °F 49% 30.33 in 10.0 mi Variable 4.6 mph - N/A   Mostly Cloudy
12:54 PM 71.1 °F 50.0 °F 47% 30.31 in 10.0 mi East 4.6 mph - N/A   Mostly Cloudy
1:54 PM 73.0 °F 48.9 °F 42% 30.30 in 10.0 mi East 5.8 mph - N/A   Scattered Clouds
2:54 PM 73.9 °F 50.0 °F 43% 30.28 in 10.0 mi ESE 8.1 mph - N/A   Partly Cloudy
3:54 PM 73.9 °F 48.0 °F 40% 30.27 in 10.0 mi ESE 5.8 mph - N/A   Scattered Clouds
4:54 PM 73.0 °F 48.0 °F 41% 30.26 in 10.0 mi SE 9.2 mph - N/A   Clear
5:54 PM 72.0 °F 45.0 °F 38% 30.26 in 10.0 mi ESE 6.9 mph - N/A   Clear
6:54 PM 69.1 °F 46.9 °F 45% 30.27 in 10.0 mi ESE 4.6 mph - N/A   Clear
7:54 PM 57.9 °F 51.1 °F 78% 30.28 in 10.0 mi South 3.5 mph - N/A   Clear
8:54 PM 55.9 °F 48.0 °F 75% 30.30 in 10.0 mi SE 6.9 mph - N/A   Clear
9:54 PM 59.0 °F 46.9 °F 64% 30.30 in 10.0 mi ESE 6.9 mph - N/A   Clear
10:54 PM 59.0 °F 45.0 °F 60% 30.30 in 10.0 mi East 8.1 mph - N/A   Clear
11:54 PM 50.0 °F 46.0 °F 86% 30.30 in 10.0 mi South 4.6 mph - N/A   Clear